Location: Torch Lake Township
(45.0753°N, 85.3586°W)
Time: 08:27:51
(UTC-04:00)

Amateur Radio Satellites - All Passes

Search period start: 02 October 2014 07:57
Search period end: 03 October 2014 07:57
Location: Torch Lake Township, 45.0753°N, 85.3586°W

Satellite Date Start Highest point End Downlink Frequencies (MHz)
Time Altitude Azimuth
MaSat-1 02 Oct 08:29:34 08:31:39 13° 317° (NW) 08:33:40 437.345 MHz
SO-67 02 Oct 08:38:28 08:41:52 51° 99° (E) 08:45:13 435.3500 MHz FM
JAS-2 02 Oct 08:43:21 08:49:21 38° 294° (WNW) 08:55:57 435.800 - 435.900 CW/SSB, 435.910 FM
Hamsat 02 Oct 08:51:03 08:54:02 19° 296° (WNW) 08:57:00 145.90 MHz
PCSat 02 Oct 08:58:13 09:00:55 14° 103° (ESE) 09:03:39 145.825 MHz
STRAND 1 02 Oct 09:13:40 09:16:06 13° 272° (W) 09:18:34 ?
RS-15 02 Oct 09:22:47 09:32:21 32° 22° (NNE) 09:42:08 29.354 - 29.394 USB, Beacon 29.352 USB
AO-7 02 Oct 09:29:47 09:32:23 12° 324° (NW) 09:34:59 29.400 - 29.500 MHz
UKube-1 02 Oct 10:08:23 10:10:14 12° 90° (E) 10:12:05 145.840 MHz, 145.915 MHz
Sapphire 02 Oct 10:12:52 10:18:07 55° 116° (ESE) 10:23:25 437.095 MHz 1200 baud AX-25 AFSK
SO-67 02 Oct 10:13:18 10:14:26 11° 297° (WNW) 10:15:35 435.3500 MHz FM
HO-68 02 Oct 10:33:39 10:40:44 56° 102° (ESE) 10:47:46 435.675 MHz FM
PCSat 02 Oct 10:38:08 10:43:33 88° 301° (WNW) 10:49:01 145.825 MHz
ZACube-1 02 Oct 10:50:31 10:52:38 13° 88° (E) 10:54:43 437.345 MHz
Oscar 11 02 Oct 11:11:51 11:16:03 47° 99° (E) 11:20:12 145.825 FM, Beacon 2401.500 USB
RS-15 02 Oct 11:35:49 11:46:57 73° 51° (NE) 11:58:29 29.354 - 29.394 USB, Beacon 29.352 USB
FUNcube-1 02 Oct 11:39:36 11:43:55 40° 97° (E) 11:48:06 145.950 - 145.970 MHz USB
UKube-1 02 Oct 11:42:32 11:46:54 69° 287° (WNW) 11:51:14 145.840 MHz, 145.915 MHz
Sapphire 02 Oct 11:57:13 12:01:52 28° 316° (NW) 12:06:32 437.095 MHz 1200 baud AX-25 AFSK
HO-68 02 Oct 12:21:53 12:28:06 33° 301° (WNW) 12:34:19 435.675 MHz FM
PCSat 02 Oct 12:23:53 12:27:45 20° 322° (NW) 12:31:39 145.825 MHz
ZACube-1 02 Oct 12:24:59 12:29:33 69° 286° (WNW) 12:33:59 437.345 MHz
Oscar 11 02 Oct 12:48:53 12:51:54 19° 297° (WNW) 12:54:53 145.825 FM, Beacon 2401.500 USB
JAS-1B 02 Oct 12:49:10 12:52:40 15° 55° (NE) 12:55:58 435.800 - 435.900 CW/SSB
Oscar 19 02 Oct 13:06:16 13:10:04 21° 61° (ENE) 13:13:52 437.125 CW, 437.150 USB
FUNcube-1 02 Oct 13:16:29 13:20:03 23° 295° (WNW) 13:23:33 145.950 - 145.970 MHz USB
ITAMSAT 1 02 Oct 13:22:50 13:25:18 14° 56° (NE) 13:27:45 435.822 SSB
Uribyol 2 02 Oct 13:23:02 13:25:45 15° 57° (ENE) 13:28:29 436.500 FM
AO-Echo 02 Oct 13:45:50 13:49:20 21° 63° (ENE) 13:52:53 ?
Oscar 16 02 Oct 13:46:10 13:51:06 46° 69° (ENE) 13:56:03 437.025 USB, Beacon 2401.1428
RS-15 02 Oct 13:48:53 13:58:30 36° 253° (WSW) 14:08:30 29.354 - 29.394 USB, Beacon 29.352 USB
AO-27 02 Oct 13:59:24 14:03:42 27° 64° (ENE) 14:08:02 436.795 MHz FM
Saudisat 1A 02 Oct 14:10:13 14:13:54 27° 115° (ESE) 14:17:36 436.775 MHz
Gurwin Techsat 1B 02 Oct 14:32:14 14:36:37 27° 64° (ENE) 14:41:01 435.225 FM
JAS-1B 02 Oct 14:35:09 14:42:35 77° 73° (ENE) 14:48:51 435.800 - 435.900 CW/SSB
Oscar 19 02 Oct 14:43:52 14:48:59 59° 259° (W) 14:54:07 437.125 CW, 437.150 USB
AO-7 02 Oct 14:53:04 14:58:41 21° 47° (NE) 15:04:18 29.400 - 29.500 MHz
ITAMSAT 1 02 Oct 14:58:49 15:03:59 85° 74° (ENE) 15:09:14 435.822 SSB
Uribyol 2 02 Oct 14:59:17 15:04:29 89° 255° (WSW) 15:09:44 436.500 FM
TMSAT-1 02 Oct 14:59:29 15:04:13 34° 66° (ENE) 15:08:57 436.925 FM
MaSat-1 02 Oct 15:03:13 15:06:23 31° 54° (NE) 15:09:09 437.345 MHz
AO-Echo 02 Oct 15:23:17 15:27:48 47° 261° (W) 15:32:24 ?
Oscar 16 02 Oct 15:26:25 15:30:39 25° 267° (W) 15:34:53 437.025 USB, Beacon 2401.1428
AO-27 02 Oct 15:38:06 15:43:01 43° 261° (W) 15:47:58 436.795 MHz FM
Saudisat 1A 02 Oct 15:49:09 15:53:18 40° 313° (NW) 15:57:30 436.775 MHz
Gurwin Techsat 1B 02 Oct 16:11:17 16:16:21 45° 261° (W) 16:21:27 435.225 FM
KITSAT 1 02 Oct 16:26:10 16:31:44 21° 102° (ESE) 16:37:17 435.175 FM
JAS-1B 02 Oct 16:28:41 16:33:40 19° 268° (W) 16:38:13 435.800 - 435.900 CW/SSB
TMSAT-1 02 Oct 16:39:18 16:44:06 35° 264° (W) 16:48:56 436.925 FM
MaSat-1 02 Oct 16:40:35 16:42:23 14° 257° (WSW) 16:44:02 437.345 MHz
ITAMSAT 1 02 Oct 16:41:55 16:44:10 13° 272° (W) 16:46:26 435.822 SSB
AO-7 02 Oct 16:41:57 16:50:12 76° 68° (ENE) 16:58:29 29.400 - 29.500 MHz
Uribyol 2 02 Oct 16:42:49 16:44:42 12° 273° (W) 16:46:35 436.500 FM
Uosat F 02 Oct 16:45:31 16:50:22 54° 70° (ENE) 16:55:15 435.120 FM
Oscar 10/S400 02 Oct 17:02:59 17:19:51 39° 153° (SSE) 17:52:12 145.825 - 145.975 CW/USB, Beacon 145.810 USB
JAS-2 02 Oct 17:14:56 17:18:44 21° 59° (ENE) 17:22:44 435.800 - 435.900 CW/SSB, 435.910 FM
Sapphire 02 Oct 17:16:24 17:19:46 16° 34° (NE) 17:23:07 437.095 MHz 1200 baud AX-25 AFSK
Saudisat 1A 02 Oct 17:33:21 17:34:05 10° 335° (NNW) 17:34:50 436.775 MHz
PCSat 02 Oct 17:41:24 17:45:42 23° 41° (NE) 17:49:59 145.825 MHz
Hamsat 02 Oct 18:09:24 18:13:26 40° 71° (ENE) 18:17:28 145.90 MHz
KITSAT 1 02 Oct 18:17:57 18:26:03 90° 122° (ESE) 18:34:12 435.175 FM
Uosat F 02 Oct 18:25:52 18:29:29 20° 268° (W) 18:33:08 435.120 FM
OPAL 02 Oct 18:35:44 18:40:46 56° 103° (ESE) 18:45:41 ?
AO-7 02 Oct 18:37:13 18:43:46 25° 268° (W) 18:50:21 29.400 - 29.500 MHz
JAS-2 02 Oct 18:58:15 19:03:21 58° 260° (W) 19:08:49 435.800 - 435.900 CW/SSB, 435.910 FM
Sapphire 02 Oct 18:58:47 19:04:14 68° 56° (NE) 19:09:38 437.095 MHz 1200 baud AX-25 AFSK
SO-67 02 Oct 19:13:33 19:16:21 23° 69° (ENE) 19:19:09 435.3500 MHz FM
HO-68 02 Oct 19:22:22 19:24:50 12° 44° (NE) 19:27:19 435.675 MHz FM
PCSat 02 Oct 19:24:15 19:29:41 73° 241° (WSW) 19:35:04 145.825 MHz
SO-50 02 Oct 19:26:46 19:30:43 31° 115° (ESE) 19:34:45 436.795 FM
STRAND 1 02 Oct 19:40:26 19:44:31 23° 93° (E) 19:48:35 ?
Hamsat 02 Oct 19:46:19 19:49:33 20° 267° (W) 19:52:46 145.90 MHz
OPAL 02 Oct 20:15:25 20:19:15 22° 301° (WNW) 20:23:01 ?
KITSAT 1 02 Oct 20:15:38 20:22:31 30° 326° (NW) 20:29:27 435.175 FM
Sapphire 02 Oct 20:43:21 20:47:06 19° 254° (WSW) 20:50:50 437.095 MHz 1200 baud AX-25 AFSK
SO-67 02 Oct 20:46:35 20:49:18 22° 266° (W) 20:52:03 435.3500 MHz FM
Saudisat 1A 02 Oct 20:56:54 20:57:48 11° 25° (NNE) 20:58:41 436.775 MHz
HO-68 02 Oct 21:04:06 21:10:56 52° 65° (ENE) 21:17:50 435.675 MHz FM
UKube-1 02 Oct 21:05:48 21:08:21 16° 61° (ENE) 21:10:55 145.840 MHz, 145.915 MHz
SO-50 02 Oct 21:06:58 21:11:11 37° 315° (NW) 21:15:31 436.795 FM
PCSat 02 Oct 21:11:22 21:12:06 10° 259° (W) 21:12:51 145.825 MHz
STRAND 1 02 Oct 21:19:00 21:23:57 48° 291° (WNW) 21:28:53 ?
UOSAT-12 02 Oct 21:24:36 21:28:56 41° 118° (ESE) 21:33:22 437.025 FM, 437.400 FM
ISS 02 Oct 21:30:07 21:30:44 10° 131° (SE) 21:31:21 145.800 FM
ZACube-1 02 Oct 21:48:57 21:51:37 15° 61° (ENE) 21:54:18 437.345 MHz
Oscar 11 02 Oct 22:08:37 22:12:48 48° 72° (ENE) 22:17:01 145.825 FM, Beacon 2401.500 USB
KITSAT 1 02 Oct 22:16:16 22:21:05 16° 355° (N) 22:25:54 435.175 FM
Saudisat 1A 02 Oct 22:34:21 22:38:34 41° 47° (NE) 22:42:45 436.775 MHz
FUNcube-1 02 Oct 22:37:34 22:41:52 42° 70° (ENE) 22:46:14 145.950 - 145.970 MHz USB
UKube-1 02 Oct 22:39:48 22:44:05 61° 258° (WSW) 22:48:24 145.840 MHz, 145.915 MHz
SO-50 02 Oct 22:52:07 22:53:07 11° 338° (NNW) 22:54:08 436.795 FM
HO-68 02 Oct 22:52:32 22:58:52 34° 264° (W) 23:05:17 435.675 MHz FM
ISS 02 Oct 23:03:34 23:06:52 70° 148° (SSE) 23:10:12 145.800 FM
UOSAT-12 02 Oct 23:05:01 23:09:12 31° 317° (NW) 23:13:26 437.025 FM, 437.400 FM
ZACube-1 02 Oct 23:22:55 23:27:28 69° 259° (WSW) 23:32:06 437.345 MHz
Oscar 11 02 Oct 23:46:19 23:49:15 18° 269° (W) 23:52:12 145.825 FM, Beacon 2401.500 USB
KITSAT 1 03 Oct 00:13:51 00:20:02 23° 26° (NNE) 00:26:10 435.175 FM
Saudisat 1A 03 Oct 00:14:17 00:17:58 26° 245° (WSW) 00:21:37 436.775 MHz
FUNcube-1 03 Oct 00:14:54 00:18:26 22° 268° (W) 00:22:01 145.950 - 145.970 MHz USB
ISS 03 Oct 00:40:45 00:43:47 32° 346° (NNW) 00:46:49 145.800 FM
Oscar 16 03 Oct 01:57:35 02:00:01 13° 88° (E) 02:02:26 437.025 USB, Beacon 2401.1428
RS-15 03 Oct 02:03:07 02:12:37 36° 107° (ESE) 02:22:01 29.354 - 29.394 USB, Beacon 29.352 USB
KITSAT 1 03 Oct 02:09:09 02:17:12 63° 51° (NE) 02:25:10 435.175 FM
SO-50 03 Oct 02:16:30 02:18:54 14° 28° (NNE) 02:21:20 436.795 FM
ISS 03 Oct 02:18:13 02:21:06 26° 7° (N) 02:23:59 145.800 FM
JAS-1B 03 Oct 02:18:56 02:21:52 14° 89° (E) 02:24:52 435.800 - 435.900 CW/SSB
Oscar 19 03 Oct 02:53:31 02:58:24 42° 98° (E) 03:03:15 437.125 CW, 437.150 USB
ITAMSAT 1 03 Oct 03:10:12 03:14:34 26° 94° (E) 03:18:55 435.822 SSB
Uribyol 2 03 Oct 03:10:29 03:14:58 28° 95° (E) 03:19:25 436.500 FM
TMSAT-1 03 Oct 03:15:47 03:16:58 11° 86° (E) 03:18:10 436.925 FM
AO-Echo 03 Oct 03:27:45 03:32:37 46° 99° (E) 03:37:35 ?
Oscar 16 03 Oct 03:34:50 03:40:01 82° 286° (WNW) 03:45:08 437.025 USB, Beacon 2401.1428
AO-27 03 Oct 03:48:43 03:53:53 58° 101° (E) 03:59:02 436.795 MHz FM
ISS 03 Oct 03:54:54 03:58:13 64° 26° (NNE) 04:01:31 145.800 FM
SO-50 03 Oct 03:55:49 04:00:32 53° 49° (NE) 04:05:18 436.795 FM
KITSAT 1 03 Oct 04:05:08 04:12:09 34° 252° (WSW) 04:19:08 435.175 FM
JAS-1B 03 Oct 04:07:32 04:13:14 82° 287° (WNW) 04:19:25 435.800 - 435.900 CW/SSB
UOSAT-12 03 Oct 04:13:02 04:15:46 15° 30° (NNE) 04:18:30 437.025 FM, 437.400 FM
RS-15 03 Oct 04:13:09 04:24:08 72° 310° (NW) 04:35:07 29.354 - 29.394 USB, Beacon 29.352 USB
OPAL 03 Oct 04:15:40 04:19:21 20° 58° (ENE) 04:23:02 ?
Gurwin Techsat 1B 03 Oct 04:25:07 04:30:24 63° 101° (ESE) 04:35:40 435.225 FM
Oscar 19 03 Oct 04:33:16 04:37:33 27° 296° (WNW) 04:41:49 437.125 CW, 437.150 USB
AO-7 03 Oct 04:42:27 04:48:25 21° 90° (E) 04:54:20 29.400 - 29.500 MHz
ITAMSAT 1 03 Oct 04:49:17 04:54:14 44° 292° (WNW) 04:59:09 435.822 SSB
Uribyol 2 03 Oct 04:49:40 04:54:33 41° 292° (WNW) 04:59:25 436.500 FM
MaSat-1 03 Oct 04:50:20 04:51:52 11° 102° (ESE) 04:53:22 437.345 MHz
TMSAT-1 03 Oct 04:52:22 04:57:43 81° 104° (ESE) 05:03:02 436.925 FM
Uosat F 03 Oct 04:52:47 04:55:23 14° 89° (E) 04:57:57 435.120 FM
AO-Echo 03 Oct 05:07:06 05:11:09 25° 296° (WNW) 05:15:17 ?
Oscar 16 03 Oct 05:16:21 05:18:32 13° 304° (NW) 05:20:43 437.025 USB, Beacon 2401.1428
AO-27 03 Oct 05:29:07 05:32:59 21° 299° (WNW) 05:36:51 436.795 MHz FM
ISS 03 Oct 05:32:05 05:34:39 21° 224° (SW) 05:37:13 145.800 FM
SO-50 03 Oct 05:37:01 05:40:49 23° 247° (WSW) 05:44:38 436.795 FM
UOSAT-12 03 Oct 05:52:09 05:56:52 63° 51° (NE) 06:01:30 437.025 FM, 437.400 FM
OPAL 03 Oct 05:52:33 05:57:44 66° 256° (WSW) 06:02:56 ?
JAS-1B 03 Oct 06:00:36 06:03:07 13° 306° (NW) 06:05:42 435.800 - 435.900 CW/SSB
JAS-2 03 Oct 06:04:11 06:09:02 20° 90° (E) 06:14:10 435.800 - 435.900 CW/SSB, 435.910 FM
Gurwin Techsat 1B 03 Oct 06:06:05 06:09:54 20° 300° (WNW) 06:13:42 435.225 FM
MaSat-1 03 Oct 06:22:51 06:27:41 89° 117° (ESE) 06:32:13 437.345 MHz
RS-15 03 Oct 06:29:21 06:38:46 32° 340° (NNW) 06:48:19 29.354 - 29.394 USB, Beacon 29.352 USB
Uosat F 03 Oct 06:29:41 06:34:44 77° 287° (WNW) 06:39:46 435.120 FM
TMSAT-1 03 Oct 06:33:48 06:36:58 16° 302° (WNW) 06:40:08 436.925 FM
AO-7 03 Oct 06:33:51 06:42:11 87° 290° (WNW) 06:50:30 29.400 - 29.500 MHz
STRAND 1 03 Oct 06:58:09 07:02:54 41° 68° (ENE) 07:07:41 ?
Hamsat 03 Oct 07:28:41 07:32:52 62° 101° (E) 07:37:00 145.90 MHz
UOSAT-12 03 Oct 07:33:22 07:36:32 18° 249° (WSW) 07:39:41 437.025 FM, 437.400 FM
